SBI1106 UNKL-UNNT

Flight info

Callsign SBI1106
Flight time N/A
Altitude 38000
Route APRUS2F APRUS B926 NATIR NATIR1P
Aircraft B737/M-SDE2E3FGHIRWXY/LB1

Departure

Time 2026-05-01 15:09
Airport Krasnoyarsk International Airport (UNKL)

Arrival

Time N/A
Airport Novosibirsk Tolmachevo Airport (UNNT)
Time Latitude Longitude Altitude Speed Heading
2026-05-01 14:12 56.18218 92.46919 950 ft 0 kts 202°
2026-05-01 14:58 56.18217 92.46918 950 ft 1 kts 202°
2026-05-01 14:58 56.18207 92.46907 950 ft 3 kts 216°
2026-05-01 14:58 56.18202 92.46868 948 ft 4 kts 270°
2026-05-01 14:58 56.18187 92.46804 950 ft 7 kts 222°
2026-05-01 14:59 56.18134 92.46785 950 ft 9 kts 158°
2026-05-01 14:59 56.18096 92.46890 950 ft 11 kts 113°
2026-05-01 14:59 56.18061 92.47036 948 ft 14 kts 113°
2026-05-01 14:59 56.18020 92.47207 950 ft 16 kts 113°
2026-05-01 15:00 56.17915 92.47647 949 ft 22 kts 113°
2026-05-01 15:00 56.17853 92.47910 950 ft 24 kts 112°
2026-05-01 15:00 56.17789 92.48183 950 ft 23 kts 112°
2026-05-01 15:01 56.17727 92.48444 950 ft 22 kts 113°
2026-05-01 15:01 56.17667 92.48696 950 ft 22 kts 113°
2026-05-01 15:01 56.17608 92.48943 950 ft 21 kts 113°
2026-05-01 15:01 56.17551 92.49181 950 ft 21 kts 113°
2026-05-01 15:02 56.17496 92.49414 950 ft 20 kts 113°
2026-05-01 15:02 56.17477 92.49494 950 ft 21 kts 113°
2026-05-01 15:02 56.17377 92.49908 950 ft 23 kts 114°
2026-05-01 15:02 56.17313 92.50173 949 ft 24 kts 114°
2026-05-01 15:03 56.17247 92.50449 950 ft 24 kts 113°
2026-05-01 15:03 56.17179 92.50734 949 ft 25 kts 113°
2026-05-01 15:03 56.17133 92.50926 950 ft 26 kts 113°
2026-05-01 15:03 56.17037 92.51322 949 ft 27 kts 113°
2026-05-01 15:04 56.16964 92.51628 949 ft 26 kts 112°
2026-05-01 15:04 56.16896 92.51912 949 ft 17 kts 123°
2026-05-01 15:04 56.16795 92.51999 950 ft 11 kts 159°
2026-05-01 15:04 56.16787 92.52005 950 ft 0 kts 159°
2026-05-01 15:07 56.16780 92.52009 950 ft 2 kts 160°
2026-05-01 15:07 56.16753 92.52027 950 ft 6 kts 160°
2026-05-01 15:07 56.16702 92.52047 951 ft 9 kts 187°
2026-05-01 15:07 56.16668 92.51962 951 ft 11 kts 276°
2026-05-01 15:08 56.16684 92.51879 951 ft 1 kts 292°
2026-05-01 15:08 56.16690 92.51853 952 ft 4 kts 292°
2026-05-01 15:08 56.16777 92.51480 951 ft 78 kts 293°
2026-05-01 15:08 56.17104 92.50111 952 ft 159 kts 293°
2026-05-01 15:09 56.17609 92.48027 1371 ft 201 kts 294°
2026-05-01 15:09 56.18199 92.45625 2183 ft 210 kts 293°
2026-05-01 15:09 56.18750 92.43290 3397 ft 202 kts 292°
2026-05-01 15:09 56.19321 92.40859 3956 ft 225 kts 292°
2026-05-01 15:10 56.19958 92.38148 4523 ft 241 kts 292°
2026-05-01 15:10 56.21275 92.32549 6226 ft 244 kts 292°
2026-05-01 15:10 56.21652 92.29592 6995 ft 247 kts 269°
2026-05-01 15:11 56.21324 92.26572 7795 ft 248 kts 253°
2026-05-01 15:11 56.20063 92.20672 9163 ft 265 kts 250°
2026-05-01 15:11 56.19361 92.17561 9755 ft 279 kts 250°
2026-05-01 15:12 56.18624 92.14283 10592 ft 289 kts 250°
2026-05-01 15:12 56.17001 92.06963 11486 ft 334 kts 250°
2026-05-01 15:12 56.16139 92.03056 12413 ft 338 kts 251°
2026-05-01 15:13 56.13510 91.91106 15182 ft 349 kts 252°
2026-05-01 15:14 56.11712 91.82938 16893 ft 357 kts 252°
2026-05-01 15:14 56.10795 91.78777 17654 ft 362 kts 252°
2026-05-01 15:14 56.08931 91.70351 18074 ft 367 kts 252°
2026-05-01 15:15 56.07054 91.61907 18091 ft 364 kts 252°
2026-05-01 15:15 56.05193 91.53562 18098 ft 364 kts 252°
2026-05-01 15:16 56.03278 91.44999 19286 ft 372 kts 252°
2026-05-01 15:16 56.01344 91.36390 20732 ft 376 kts 252°
2026-05-01 15:17 55.99363 91.27605 21960 ft 385 kts 252°
2026-05-01 15:18 55.97091 91.13779 23676 ft 390 kts 262°
2026-05-01 15:18 55.96580 91.09063 24121 ft 393 kts 263°
2026-05-01 15:19 55.94984 90.94609 25499 ft 399 kts 262°
2026-05-01 15:19 55.93844 90.84857 26307 ft 403 kts 262°
2026-05-01 15:19 55.93258 90.79943 26704 ft 406 kts 262°
2026-05-01 15:20 55.92065 90.70040 27444 ft 410 kts 262°
2026-05-01 15:20 55.91462 90.65075 27796 ft 411 kts 262°
2026-05-01 15:20 55.90851 90.60061 28136 ft 413 kts 262°
2026-05-01 15:21 55.90239 90.55048 28454 ft 415 kts 262°
2026-05-01 15:21 55.89620 90.50000 28758 ft 417 kts 262°
2026-05-01 15:21 55.88997 90.44941 29054 ft 419 kts 262°
2026-05-01 15:21 55.88369 90.39857 29337 ft 421 kts 262°
2026-05-01 15:22 55.87099 90.29629 29873 ft 424 kts 262°
2026-05-01 15:22 55.86465 90.24556 30104 ft 426 kts 262°
2026-05-01 15:22 55.85817 90.19385 30322 ft 428 kts 262°
2026-05-01 15:23 55.85167 90.14219 30535 ft 429 kts 262°
2026-05-01 15:23 55.84511 90.09019 30754 ft 429 kts 262°
2026-05-01 15:23 55.83853 90.03832 31040 ft 428 kts 262°
2026-05-01 15:23 55.83199 89.98696 31401 ft 425 kts 262°
2026-05-01 15:24 55.82544 89.93582 31844 ft 421 kts 262°
2026-05-01 15:24 55.81894 89.88521 32304 ft 416 kts 262°
2026-05-01 15:24 55.81251 89.83523 32687 ft 413 kts 262°
2026-05-01 15:24 55.80618 89.78612 32985 ft 413 kts 262°
2026-05-01 15:25 55.79970 89.73591 33256 ft 413 kts 262°
2026-05-01 15:25 55.79324 89.68614 33554 ft 412 kts 262°
2026-05-01 15:25 55.78678 89.63654 33889 ft 410 kts 262°
2026-05-01 15:25 55.78043 89.58798 34187 ft 409 kts 262°
2026-05-01 15:26 55.77397 89.53868 34411 ft 409 kts 262°
2026-05-01 15:26 55.76749 89.48944 34604 ft 410 kts 262°
2026-05-01 15:26 55.76098 89.44012 34841 ft 410 kts 262°
2026-05-01 15:26 55.75447 89.39100 35079 ft 409 kts 262°
2026-05-01 15:27 55.74794 89.34184 35303 ft 409 kts 262°
2026-05-01 15:27 55.74137 89.29256 35503 ft 410 kts 262°
2026-05-01 15:27 55.73478 89.24335 35717 ft 410 kts 262°
2026-05-01 15:28 55.72156 89.14503 36074 ft 411 kts 261°
2026-05-01 15:28 55.70821 89.04622 36071 ft 411 kts 261°
2026-05-01 15:29 55.68817 88.89932 36076 ft 407 kts 261°
2026-05-01 15:30 55.66154 88.70529 36082 ft 405 kts 261°
2026-05-01 15:31 55.62101 88.41438 36084 ft 407 kts 260°
2026-05-01 15:32 55.59343 88.21960 36075 ft 409 kts 260°
2026-05-01 15:34 55.55126 87.92637 36088 ft 416 kts 259°